Location: Altleiningen
(49.5078°N, 8.0741°E)
Time: 11:46:22
(UTC+00:00)

Cosmos 2219 Rocket - Pass Details

Date: 03 March 2021
Orbit: 826 x 848 km, 71.0° (Epoch: 13 April)

Event Time Altitude Azimuth Distance (km) Brightness Sun altitude
Rises 19:24:29 0° 195° (SSW) 3,354 5.3 -21.8°
Reaches altitude 10° 19:26:55 10° 192° (SSW) 2,426 4.5 -22.2°
Maximum altitude 19:32:23 61° 113° (ESE) 940 2.1 -23.0°
Drops below altitude 10° 19:37:55 10° 34° (NE) 2,454 4.5 -23.9°
Sets 19:40:23 0° 31° (NNE) 3,395 5.2 -24.3°
